{"data":{"norad_id":56168,"intl_designator":"2023-050G","name":"CHECKMATE 1","alt_names":[],"object_type":"PAYLOAD","status":"ACTIVE","operator":null,"country":"US","launch_date":"2023-04-02","launch_site_code":"AFWTR","launch_vehicle":null,"mission":null,"orbit_class":"UNKNOWN","rcs_meters":null,"size_class":null,"mass_kg":null,"dimensions":null,"purposes":[],"wikipedia_slug":null,"has_3d_model":false,"image_url":null,"decayed_at":null,"tle_current":{"epoch":"2026-09-21T16:55:50.274336Z","epoch_age_seconds":83117,"freshness":"FRESH","line1":"1 56168U 23050G   26264.70544299  .00000027  00000+0  14002-4 0  9995","line2":"2 56168  81.0076 339.4165 0012198  89.3066 270.9487 13.84959286175458","mean_motion":13.84959286,"eccentricity":0.0012198,"inclination_deg":81.0076,"raan_deg":339.4165,"arg_perigee_deg":89.3066,"mean_anomaly_deg":270.9487,"bstar":1.4002e-5,"rev_number":17545,"period_min":103.97417559898,"perigee_km":937.41487962034,"apogee_km":955.28369636853,"semimajor_km":7324.4862879944,"source":"CELESTRAK","updated_at":"2026-09-22T09:00:25.730843Z"}}}